TimeCDT,TemperatureF,Dew PointF,Humidity,Sea Level PressureIn,VisibilityMPH,Wind Direction,Wind SpeedMPH,Gust SpeedMPH,PrecipitationIn,Events,Conditions,WindDirDegrees,DateUTC
12:15 AM,58.5,53.6,84,30.05,10.0,SSW,4.6,-,N/A,,Clear,200,2012-10-04 05:15:00
12:35 AM,60.4,54.5,81,30.05,10.0,South,5.8,-,N/A,,Clear,190,2012-10-04 05:35:00
12:55 AM,60.4,54.5,81,30.06,10.0,South,5.8,-,N/A,,Clear,180,2012-10-04 05:55:00
1:15 AM,59.9,54.5,82,30.06,10.0,South,4.6,-,N/A,,Clear,190,2012-10-04 06:15:00
1:35 AM,59.7,54.5,83,30.07,10.0,South,3.5,-,N/A,,Clear,190,2012-10-04 06:35:00
1:55 AM,59.0,54.1,84,30.07,10.0,South,4.6,-,N/A,,Clear,190,2012-10-04 06:55:00
2:15 AM,59.0,54.3,84,30.07,10.0,South,3.5,-,N/A,,Clear,190,2012-10-04 07:15:00
2:35 AM,59.0,54.5,85,30.07,10.0,South,3.5,-,N/A,,Clear,190,2012-10-04 07:35:00
2:55 AM,58.1,53.8,86,30.07,10.0,South,3.5,-,N/A,,Scattered Clouds,180,2012-10-04 07:55:00
3:15 AM,58.1,54.1,87,30.07,10.0,SSW,3.5,-,N/A,,Scattered Clouds,200,2012-10-04 08:15:00
3:35 AM,57.4,53.6,87,30.07,10.0,South,4.6,-,N/A,,Scattered Clouds,180,2012-10-04 08:35:00
3:55 AM,57.9,54.0,87,30.07,10.0,South,4.6,-,N/A,,Clear,190,2012-10-04 08:55:00
4:15 AM,57.4,53.8,88,30.07,10.0,South,4.6,-,N/A,,Clear,180,2012-10-04 09:15:00
4:35 AM,57.6,53.8,87,30.07,10.0,South,4.6,-,N/A,,Clear,190,2012-10-04 09:35:00
4:55 AM,57.9,54.0,87,30.07,10.0,South,4.6,-,N/A,,Clear,190,2012-10-04 09:55:00
5:15 AM,59.0,54.5,85,30.08,10.0,SSW,5.8,-,N/A,,Clear,200,2012-10-04 10:15:00
5:35 AM,59.0,54.5,85,30.08,10.0,South,6.9,-,N/A,,Clear,190,2012-10-04 10:35:00
5:55 AM,59.4,54.9,85,30.08,10.0,South,5.8,-,N/A,,Clear,190,2012-10-04 10:55:00
6:15 AM,59.0,54.7,86,30.08,10.0,South,5.8,-,N/A,,Clear,190,2012-10-04 11:15:00
6:35 AM,59.0,54.5,85,30.09,10.0,SSW,4.6,-,N/A,,Clear,200,2012-10-04 11:35:00
6:55 AM,59.0,54.7,86,30.10,10.0,SSW,5.8,-,N/A,,Clear,200,2012-10-04 11:55:00
7:15 AM,58.3,54.5,87,30.10,10.0,South,4.6,-,N/A,,Clear,190,2012-10-04 12:15:00
7:35 AM,59.2,54.7,85,30.10,10.0,South,6.9,-,N/A,,Clear,190,2012-10-04 12:35:00
7:55 AM,60.8,55.8,83,30.11,10.0,South,6.9,-,N/A,,Mostly Cloudy,180,2012-10-04 12:55:00
8:15 AM,62.1,55.9,80,30.11,10.0,SSW,8.1,-,N/A,,Mostly Cloudy,200,2012-10-04 13:15:00
8:35 AM,62.6,55.9,79,30.11,10.0,SSW,8.1,-,N/A,,Scattered Clouds,200,2012-10-04 13:35:00
8:55 AM,64.8,56.7,75,30.11,10.0,SSW,10.4,16.1,N/A,,Clear,210,2012-10-04 13:55:00
9:15 AM,66.6,57.2,72,30.11,10.0,SW,11.5,-,N/A,,Clear,230,2012-10-04 14:15:00
9:35 AM,68.0,57.0,68,30.11,10.0,SW,12.7,18.4,N/A,,Clear,230,2012-10-04 14:35:00
9:55 AM,69.1,57.0,65,30.10,10.0,SW,10.4,19.6,N/A,,Clear,220,2012-10-04 14:55:00
10:15 AM,70.0,56.5,62,30.10,10.0,SW,12.7,-,N/A,,Clear,220,2012-10-04 15:15:00
10:35 AM,71.2,56.5,60,30.10,10.0,SSW,10.4,18.4,N/A,,Clear,210,2012-10-04 15:35:00
10:55 AM,72.7,56.3,56,30.10,10.0,WSW,13.8,20.7,N/A,,Clear,240,2012-10-04 15:55:00
11:15 AM,73.6,55.6,53,30.10,10.0,West,13.8,18.4,N/A,,Clear,260,2012-10-04 16:15:00
11:35 AM,74.7,55.4,51,30.11,10.0,WSW,12.7,17.3,N/A,,Clear,250,2012-10-04 16:35:00
11:55 AM,75.2,55.4,50,30.10,10.0,SW,16.1,23.0,N/A,,Scattered Clouds,220,2012-10-04 16:55:00
12:15 PM,76.1,55.4,49,30.09,10.0,SW,13.8,20.7,N/A,,Clear,220,2012-10-04 17:15:00
12:35 PM,76.6,55.8,48,30.10,10.0,WSW,15.0,19.6,N/A,,Clear,240,2012-10-04 17:35:00
12:55 PM,75.7,55.6,49,30.10,10.0,WSW,10.4,-,N/A,,Scattered Clouds,240,2012-10-04 17:55:00
1:15 PM,76.1,55.2,48,30.11,10.0,WSW,12.7,18.4,N/A,,Scattered Clouds,240,2012-10-04 18:15:00
1:35 PM,76.8,54.7,46,30.10,10.0,WSW,11.5,19.6,N/A,,Clear,250,2012-10-04 18:35:00
1:55 PM,77.4,54.7,45,30.10,10.0,West,13.8,19.6,N/A,,Scattered Clouds,270,2012-10-04 18:55:00
2:15 PM,77.0,54.0,45,30.11,10.0,West,17.3,20.7,N/A,,Scattered Clouds,270,2012-10-04 19:15:00
2:35 PM,76.8,54.1,45,30.10,10.0,West,12.7,20.7,N/A,,Scattered Clouds,280,2012-10-04 19:35:00
2:55 PM,76.1,54.7,47,30.10,10.0,WSW,8.1,-,N/A,,Scattered Clouds,250,2012-10-04 19:55:00
3:15 PM,75.4,55.6,50,30.11,10.0,West,9.2,-,N/A,,Mostly Cloudy,280,2012-10-04 20:15:00
3:35 PM,74.3,56.1,53,30.11,10.0,WNW,11.5,16.1,N/A,,Scattered Clouds,300,2012-10-04 20:35:00
3:55 PM,69.8,50.7,51,30.12,10.0,NW,15.0,20.7,N/A,,Clear,310,2012-10-04 20:55:00
4:15 PM,68.2,48.9,50,30.13,10.0,WNW,15.0,19.6,N/A,,Scattered Clouds,300,2012-10-04 21:15:00
4:35 PM,65.8,47.8,52,30.13,10.0,NW,12.7,19.6,N/A,,Scattered Clouds,310,2012-10-04 21:35:00
4:55 PM,65.3,47.5,52,30.13,10.0,NW,15.0,18.4,N/A,,Scattered Clouds,320,2012-10-04 21:55:00
5:15 PM,62.8,46.4,55,30.14,10.0,NW,13.8,-,N/A,,Clear,310,2012-10-04 22:15:00
5:35 PM,61.0,45.9,58,30.16,10.0,NW,10.4,-,N/A,,Scattered Clouds,310,2012-10-04 22:35:00
5:55 PM,59.7,45.7,60,30.17,10.0,NW,13.8,19.6,N/A,,Scattered Clouds,320,2012-10-04 22:55:00
6:15 PM,56.7,45.7,67,30.17,10.0,WNW,12.7,17.3,N/A,,Mostly Cloudy,300,2012-10-04 23:15:00
6:35 PM,53.8,44.6,71,30.18,10.0,NW,16.1,-,N/A,Thunderstorm,Mostly Cloudy,320,2012-10-04 23:35:00
6:55 PM,53.1,44.2,72,30.19,10.0,NW,12.7,-,N/A,,Overcast,320,2012-10-04 23:55:00
7:15 PM,52.7,44.6,74,30.19,10.0,NW,9.2,-,N/A,,Overcast,310,2012-10-05 00:15:00
7:35 PM,52.2,45.0,76,30.19,10.0,NW,10.4,-,N/A,,Overcast,320,2012-10-05 00:35:00
7:55 PM,52.0,45.7,79,30.20,10.0,NW,12.7,-,N/A,,Light Drizzle,310,2012-10-05 00:55:00
8:15 PM,51.3,45.5,81,30.21,10.0,NW,12.7,-,N/A,,Overcast,310,2012-10-05 01:15:00
8:35 PM,50.7,45.0,81,30.21,10.0,NW,9.2,-,N/A,,Overcast,310,2012-10-05 01:35:00
8:55 PM,50.0,44.6,82,30.21,10.0,NNW,11.5,-,N/A,Rain-Thunderstorm,Light Thunderstorms and Rain,330,2012-10-05 01:55:00
9:15 PM,49.5,45.5,86,30.22,10.0,WNW,8.1,-,N/A,Rain,Light Rain,300,2012-10-05 02:15:00
9:35 PM,49.1,45.7,88,30.20,5.0,NNW,4.6,-,0.04,Rain,Heavy Rain,340,2012-10-05 02:35:00
9:55 PM,48.6,45.7,90,30.21,10.0,NNW,4.6,-,0.09,Rain-Thunderstorm,Light Thunderstorms and Rain,330,2012-10-05 02:55:00
10:15 PM,48.6,45.5,89,30.21,7.0,Calm,Calm,-,0.03,Rain-Thunderstorm,Heavy Thunderstorms and Rain,0,2012-10-05 03:15:00
10:35 PM,48.6,46.0,91,30.22,10.0,WSW,3.5,-,0.08,Rain-Thunderstorm,Light Thunderstorms and Rain,250,2012-10-05 03:35:00
10:55 PM,48.4,46.0,92,30.23,7.0,Calm,Calm,-,0.14,Rain,Light Rain,0,2012-10-05 03:55:00
11:15 PM,48.6,46.2,92,30.23,3.0,WNW,4.6,-,0.13,Rain-Thunderstorm,Heavy Thunderstorms and Rain,290,2012-10-05 04:15:00
11:35 PM,48.2,45.7,91,30.21,5.0,Calm,Calm,-,0.18,Rain-Thunderstorm,Heavy Thunderstorms and Rain,0,2012-10-05 04:35:00
11:55 PM,48.4,46.4,93,30.17,7.0,NNE,5.8,-,0.27,Rain-Thunderstorm,Rain,30,2012-10-05 04:55:00